This demonstration page uses our WeatherBlox Daily Observations layout. Learn more.

Left ArrowRight Arrow

Hourly Observations for October 3, 2021

Temp ( °F °C ) Dew Point ( °F °C ) Humidity (%) Winds ( mph kmh ) Pressure ( in mb ) Visibility ( mi km ) Precip ( " mm )
12:15 am 00:15 Clear 53 11.6 48 9 84 84 W 3 6 30.08 1019 10 16 0.00 0.00
12:35 am 00:35 Clear 51 10.6 47 8.5 87 87 W 5 7 30.09 1019 10 16 0.00 0.00
12:55 am 00:55 Clear 53 11.5 47 8.5 82 82 W 6 9 30.08 1019 10 16 0.00 0.00
1:15 am 01:15 Clear 53 11.6 47 8.6 82 82 W 5 7 30.08 1019 10 16 0.00 0.00
1:35 am 01:35 Clear 52 11.3 47 8.2 81 81 Calm 30.08 1019 10 16 0.00 0.00
1:55 am 01:55 Clear 52 11.1 47 8.2 82 82 W 5 7 30.08 1019 10 16 0.00 0.00
2:15 am 02:15 Clear 53 11.5 47 8.2 80 80 W 5 7 30.08 1019 10 16 0.00 0.00
2:35 am 02:35 Clear 52 11.3 47 8.2 81 81 WNW 5 7 30.08 1019 10 16 0.00 0.00
2:55 am 02:55 Clear 52 11.3 46 8 80 80 W 5 7 30.08 1019 10 16 0.00 0.00
3:15 am 03:15 Clear 50 10.2 46 7.7 85 85 Calm 30.09 1019 10 16 0.00 0.00
3:35 am 03:35 Clear 51 10.6 46 7.9 84 84 W 5 7 30.09 1019 10 16 0.00 0.00
3:55 am 03:55 Clear 51 10.4 46 7.7 84 84 W 7 11 30.09 1019 10 16 0.00 0.00
4:15 am 04:15 Clear 52 11 46 8 82 82 W 5 7 30.08 1019 10 16 0.00 0.00
4:35 am 04:35 Clear 50 10.2 46 7.6 84 84 W 9 15 30.09 1019 10 16 0.00 0.00
4:55 am 04:55 Clear 51 10.8 46 7.6 81 81 WNW 7 11 30.09 1019 10 16 0.00 0.00
5:15 am 05:15 Clear 51 10.6 45 7.2 80 80 WNW 6 9 30.09 1019 10 16 0.00 0.00
5:35 am 05:35 Clear 51 10.3 45 7.4 82 82 WNW 6 9 30.09 1019 10 16 0.00 0.00
5:55 am 05:55 Clear 49 9.6 45 7.1 85 85 WNW 7 11 30.10 1019 10 16 0.00 0.00
6:15 am 06:15 Clear 49 9.5 45 7.3 86 86 WNW 7 11 30.10 1019 10 16 0.00 0.00
6:35 am 06:35 Clear 49 9.5 45 7.4 87 87 WNW 7 11 30.10 1019 10 16 0.00 0.00
6:55 am 06:55 Clear 49 9.2 45 7.3 88 88 WNW 7 11 30.11 1020 10 16 0.00 0.00
7:15 am 07:15 Clear 49 9.3 45 7.4 88 88 WNW 7 11 30.11 1020 10 16 0.00 0.00
7:35 am 07:35 Clear 49 9.5 45 7.3 86 86 WNW 7 11 30.12 1020 10 16 0.00 0.00
7:55 am 07:55 Sunny 50 9.8 45 7.2 84 84 WNW 7 11 30.11 1020 10 16 0.00 0.00
8:15 am 08:15 Sunny 51 10.5 45 7.3 81 81 NW 8 13 30.11 1020 10 16 0.00 0.00
8:35 am 08:35 Sunny 53 11.5 46 7.8 78 78 NW 7 11 30.11 1020 10 16 0.00 0.00
8:55 am 08:55 Sunny 55 12.5 47 8.4 76 76 WNW 6 9 30.10 1019 10 16 0.00 0.00
9:15 am 09:15 Sunny 56 13.6 48 8.7 72 72 WNW 7 11 30.10 1019 10 16 0.00 0.00
9:35 am 09:35 Sunny 59 15.2 48 8.9 66 66 NW 5 7 30.09 1019 10 16 0.00 0.00
9:55 am 09:55 Sunny 62 16.9 48 8.8 59 59 NW 6 9 30.07 1018 10 16 0.00 0.00
10:15 am 10:15 Sunny 64 18 46 8 52 52 NW 7 11 30.06 1018 10 16 0.00 0.00
10:35 am 10:35 Sunny 67 19.2 46 7.9 48 48 NW 6 9 30.05 1018 10 16 0.00 0.00
10:55 am 10:55 Sunny 69 20.6 46 8 44 44 NW 5 7 30.04 1017 10 16 0.00 0.00
11:15 am 11:15 Sunny 71 21.6 46 7.5 40 40 NW 8 13 30.03 1017 10 16 0.00 0.00
11:35 am 11:35 Sunny 72 22 46 7.5 39 39 NW 7 11 30.03 1017 10 16 0.00 0.00
11:55 am 11:55 Sunny 73 22.7 42 5.4 33 33 NNW 6 9 30.02 1017 10 16 0.00 0.00
12:15 pm 12:15 Sunny 74 23.6 41 5 30 30 N 7 11 30.01 1016 10 16 0.00 0.00
12:35 pm 12:35 Sunny 75 23.9 40 4.7 29 29 N 6 9 30.00 1016 10 16 0.00 0.00
12:55 pm 12:55 Sunny 76 24.2 40 4.5 28 28 NNW 6 9 29.99 1016 10 16 0.00 0.00
1:15 pm 13:15 Sunny 76 24.6 40 4.5 27 27 N 5 7 29.98 1015 10 16 0.00 0.00
1:35 pm 13:35 Sunny 77 25 39 4 26 26 WNW 6 9 29.98 1015 10 16 0.00 0.00
1:55 pm 13:55 Sunny 77 25 39 3.9 26 26 WNW 5 7 29.97 1015 10 16 0.00 0.00
2:15 pm 14:15 Sunny 78 25.3 39 3.8 25 25 N 5 7 29.95 1014 10 16 0.00 0.00
2:35 pm 14:35 Sunny 78 25.5 37 3 23 23 Calm 29.95 1014 10 16 0.00 0.00
2:55 pm 14:55 Sunny 78 25.7 38 3.3 23 23 W 5 7 29.94 1014 10 16 0.00 0.00
3:15 pm 15:15 Sunny 78 25.7 37 2.9 23 23 Calm 29.94 1014 10 16 0.00 0.00
3:35 pm 15:35 Sunny 78 25.7 37 3 23 23 Calm 29.93 1014 10 16 0.00 0.00
3:55 pm 15:55 Sunny 79 26.2 38 3.4 23 23 Calm 29.93 1013 10 16 0.00 0.00
4:15 pm 16:15 Sunny 79 26.2 38 3.3 23 23 NNW 5 7 29.93 1013 10 16 0.00 0.00
4:35 pm 16:35 Sunny 79 26 36 2.4 22 22 Calm 29.92 1013 10 16 0.00 0.00
4:55 pm 16:55 Sunny 79 26.2 38 3.1 22 22 NNW 3 6 29.92 1013 10 16 0.00 0.00
5:15 pm 17:15 Sunny 79 26 37 2.6 22 22 Calm 29.92 1013 10 16 0.00 0.00
5:35 pm 17:35 Sunny 79 25.9 37 2.9 23 23 Calm 29.92 1013 10 16 0.00 0.00
8:55 pm 20:55 Clear 61 16.2 45 7.2 55 55 Calm 30.00 1016 10 16 0.00 0.00
9:15 pm 21:15 Clear 60 15.4 45 7.1 58 58 Calm 30.02 1016 10 16 0.00 0.00
9:35 pm 21:35 Clear 60 15.6 45 7.2 58 58 Calm 30.01 1016 10 16 0.00 0.00
9:55 pm 21:55 Clear 60 15.6 44 6.9 56 56 S 3 6 30.01 1016 10 16 0.00 0.00
10:15 pm 22:15 Clear 60 15.6 44 6.7 56 56 S 3 6 30.02 1017 10 16 0.00 0.00
10:35 pm 22:35 Clear 60 15.4 44 6.9 57 57 S 3 6 30.03 1017 10 16 0.00 0.00
10:55 pm 22:55 Clear 58 14.5 45 7 61 61 S 3 6 30.03 1017 10 16 0.00 0.00
11:15 pm 23:15 Clear 59 14.8 44 6.8 59 59 S 5 7 30.04 1017 10 16 0.00 0.00
11:35 pm 23:35 Clear 57 14 44 6.6 61 61 S 5 7 30.05 1018 10 16 0.00 0.00
11:55 pm 23:55 Clear 57 13.9 44 6.5 61 61 S 3 6 30.05 1018 10 16 0.00 0.00

Powered by AerisWeather